Location: Unspecified
(0.0000°N, 0.0000°E)
Time: 05:04:33
(UTC+00:00)

Vanguard 1 - Pass Details

Date: 11 December 2017
Orbit: 649 x 3834 km, 34.3° (Epoch: 16 January)

Event Time Altitude Azimuth Distance (km) Brightness Sun altitude
Rises 17:40:49 0° 317° (NW) 3,429 13.2 2.9°
Reaches altitude 10° 17:43:42 10° 324° (NW) 2,262 12.1 2.2°
Maximum altitude 17:48:16 41° 35° (NE) 948 9.7 1.2°
Drops below altitude 10° 17:52:28 10° 106° (ESE) 2,073 11.3 0.2°
Sets 17:54:59 0° 114° (ESE) 3,101 12.2 -0.3°
